Location: ??
(35.1714°N, 128.2806°E)
Time: 14:55:30
(UTC+00:00)

Daily predictions for brighter satellites

Satellite Brightness Start Highest point End
(mag) Time Altitude Azimuth Time Altitude Azimuth Time Altitude Azimuth
Cosmos 2082 Rocket 3.3 18:57:43 41° E 18:57:43 41° E 19:02:26 10° NE
CENTAUR R/B 4.2 19:08:28 21° N 19:08:28 21° N 19:11:10 10° NNE
CZ-3 R/B 3.9 19:00:00 40° WSW 19:12:32 66° S 19:22:38 10° E
ATLAS CENTAUR Rocket 4.3 19:15:38 14° SSE 19:15:38 14° SSE 19:16:19 10° SSE
Cosmos 2180 Rocket 4.4 19:13:16 10° N 19:20:03 76° SSE 19:25:41 10° S
Cosmos 1697 Rocket 3.5 19:19:19 30° N 19:21:46 49° ENE 19:27:13 10° SE
GOES 2 Rocket 4.4 19:26:45 39° SSE 19:26:45 39° SSE 19:32:14 10° ESE
Meteor 2-5 Rocket 3.7 19:34:53 10° S 19:40:33 84° E 19:46:22 10° N
Cosmos 1484 Rocket 3.8 19:40:43 10° NNE 19:44:21 43° E 19:47:56 10° S
Cosmos 1980 Rocket 3.4 19:40:03 10° N 19:45:17 40° ENE 19:50:30 10° SE
Cosmos 1606 Rocket 4.2 19:44:42 10° N 19:49:07 56° E 19:53:30 10° SSE
Cosmos 220 Rocket 4.2 19:51:53 34° N 19:53:43 70° ENE 19:58:05 10° SSE
H-2A R/B 3.5 19:49:57 10° S 19:52:02 27° S 19:52:02 27° S
ATLAS 3B R/B 2.8 19:54:11 45° WNW 19:54:48 46° NW 20:01:10 10° NNE
CZ-4B R/B 3.0 19:51:54 10° SE 19:55:05 36° ENE 19:58:15 10° N
CZ-2C R/B 3.7 19:51:15 10° N 19:53:34 26° NNW 19:53:34 26° NNW
Cosmos 2084 4.1 19:57:43 43° N 19:57:43 43° N 20:01:01 10° NNE
ADEOS Rocket 2.6 19:52:00 10° S 19:57:26 63° W 20:02:56 10° NNW
ERS-2 2.5 19:57:47 10° SSE 20:01:22 63° ENE 20:03:40 21° N
Cosmos 2026 Rocket 4.3 19:57:39 10° S 20:03:58 72° E 20:10:20 10° N
CBERS 1 LM4 rocket 4.5 20:04:27 10° N 20:09:06 48° WNW 20:10:01 42° WSW
Cosmos 2360 4.1 20:04:03 14° NNW 20:09:06 83° WSW 20:14:46 10° SSE
Cosmos 2195 Rocket 4.4 20:03:09 10° S 20:09:21 87° W 20:15:33 10° N
Meteor 1-31 Rocket 3.0 20:05:50 10° NNE 20:09:45 69° E 20:13:39 10° S
Abrixas rocket 3.7 20:14:09 22° NNE 20:14:33 23° NNE 20:16:53 10° E
Cosmos 1833 Rocket 4.1 20:16:05 20° NW 20:16:05 20° NW 20:19:07 10° N
deb Chang Zheng 4 3.4 20:10:55 10° NNE 20:15:11 84° WNW 20:19:27 10° SSW
Cosmos 2251 Rocket 3.9 20:16:59 31° WSW 20:18:46 41° WNW 20:23:49 10° N
Cosmos 2278 3.7 20:13:31 10° NNW 20:19:11 83° ENE 20:24:50 10° SSE
METEOR-M 4.0 20:14:07 10° NNE 20:19:28 86° WNW 20:24:48 10° SSW
Okean 1-7 Rocket 3.5 20:21:01 10° S 20:25:34 83° W 20:30:06 10° N
SL-27 R/B 4.4 20:23:17 10° SSE 20:26:31 32° E 20:29:46 10° NE
Cosmos 2058 Rocket 3.3 20:22:51 10° N 20:27:20 73° E 20:31:46 10° SSE
BREEZE-M DEB (TANK) 1.2 20:27:08 61° W 20:27:24 69° SW 20:29:31 10° SE
Cosmos 1892 Rocket 3.6 20:23:19 10° SSW 20:27:32 51° W 20:31:49 10° N
CZ-4B R/B 3.2 20:28:32 10° NNE 20:32:43 72° ESE 20:37:02 10° S
Cosmos 1190 Rocket 4.4 20:28:37 10° S 20:33:47 65° ESE 20:38:58 10° NNE
ALOS 2.7 20:35:36 10° N 20:39:55 38° WNW 20:44:13 10° SW
Cosmos 2082 Rocket 3.2 20:39:40 20° W 20:41:23 24° WNW 20:45:50 10° N
Cosmos 2369 4.2 20:38:34 10° NW 20:43:36 36° WSW 20:48:41 10° S
SKYMED 2 3.7 20:40:11 10° SSE 20:44:30 77° ENE 20:48:51 10° N
Cosmos 2292 Rocket 4.4 20:41:57 10° SSE 20:44:49 39° E 20:48:10 10° NNE
Meteor 1-24 Rocket 4.4 20:40:32 10° SW 20:45:31 33° WNW 20:50:42 10° NNW
Cosmos 1300 3.4 20:42:42 10° NNW 20:46:04 30° W 20:49:26 10° SSW
ATLAS CENTAUR R/B 1.1 20:42:44 10° SW 20:46:44 73° WNW 20:50:33 10° NNE
Geosat 4.0 20:42:32 10° SSE 20:47:29 64° WSW 20:52:29 10° NNW
Cosmos 2098 Rocket 3.9 20:42:21 10° S 20:48:37 79° E 20:53:37 10° N
Cosmos 1400 Rocket 3.2 20:45:39 10° NNW 20:49:17 38° W 20:52:52 10° SSW
Cosmos 1626 Rocket 3.6 20:45:45 10° S 20:50:11 87° E 20:54:41 10° N
Cosmos 1140 Rocket 3.4 20:46:59 10° SSW 20:52:07 81° WNW 20:57:15 10° NNE
Cosmos 1602 Rocket 4.0 20:49:34 10° S 20:53:58 69° E 20:58:24 10° NNE
Cosmos 407 Rocket 3.4 20:49:04 10° SSW 20:54:06 60° WNW 20:59:13 10° N
SL-16 R/B 3.4 20:50:24 10° N 20:55:48 43° ENE 21:01:10 10° SE
Cosmos 1689 Rocket 2.1 21:01:28 10° S 21:04:20 51° W 21:07:11 10° NNW
X-37B 3.3 21:02:09 10° S 21:04:35 20° SE 21:07:03 10° E
Cosmos 1697 Rocket 4.0 21:01:24 10° WNW 21:05:16 19° W 21:09:06 10° SW
Cosmos 1812 Rocket 4.5 21:03:23 10° N 21:07:38 52° E 21:11:51 10° SSE
Okean O Rocket 3.9 21:06:07 10° NE 21:09:56 29° E 21:13:45 10° SSE
Meteor PRIRODA 4.1 21:07:45 10° N 21:11:10 38° WNW 21:14:35 10° SW
Aureole 1 Rocket 4.1 21:07:20 10° S 21:13:18 63° ESE 21:17:48 10° NNE
H-2A R/B 2.7 21:09:49 10° N 21:13:40 80° WNW 21:17:32 10° SSW
Cosmos 2266 Rocket 4.1 21:11:31 10° S 21:17:33 85° E 21:23:38 10° N
Cosmos 2360 Rocket 4.2 21:12:53 10° N 21:17:41 28° ENE 21:22:27 10° ESE
S3M 4.1 21:13:05 10° N 21:19:26 88° W 21:25:49 10° S
Meteor 2-1 Rocket 4.3 21:14:20 10° NNW 21:20:03 72° W 21:25:50 10° S
Cosmos 1655 Rocket 4.0 21:14:30 10° SSW 21:20:44 70° W 21:27:04 10° N
Cosmos 1954 Rocket 3.9 21:17:34 10° SSW 21:22:43 74° WNW 21:27:53 10° NNE
Cosmos 1315 Rocket 3.1 21:19:22 10° NNW 21:23:21 50° W 21:27:21 10° S
Spot 2 4.4 21:19:04 10° N 21:23:42 64° WNW 21:28:35 10° SSW
YAOGAN 6 3.0 21:20:22 10° NNE 21:24:02 72° ESE 21:27:37 10° S
ATLAS 5 CENTAUR R/B 4.1 21:08:17 10° SSW 21:29:31 83° SE 21:34:26 10° NE
